SCP
0 0 0 0 0 0 0 0 0 0 0 0 0 0 0 0 0 0 0 0 0 0 0 0 0 0 0 0 0 0 0 0 0
0 0 0 0 0 0 0 0 0 0 0 0 0 0 0 0 0 0 0 0 0 0 0 0 0 0 0 0 0 0 0 0 0
0 0 0 0 0 0 0 0 0 0 0 0 0 0 0 0 0 0 0 0 0 0 0 0 0 0 0 0 0 0 0 0 0
0 0 0 0 0 0 0 0 0 0 0 0 0 0 0 0 0 0 0 0 0 0 0 0 0 0 0 0 0 0 0 0 0
0 0 0 0 0 0 0 0 0 0 0 0 0 0 0 0 0 0 0 0 0 0 0 0 0 0 0 0 0 0 0 0 0
0 0 0 0 0 0 0 0 0 0 0 0 0 0 0 0 0 0 0 0 0 0 0 0 0 0 0 0 0 0 0 0 0
0 0 0 0 0 0 0 0 0 0 0 0 0 0 0 0 0 0 0 0 0 0 0 0 0 0 0 0 0 0 0 0 0
0 0 0 0 0 0 0 0 0 0 0 0 0 0 0 0 0 0 0 0 0 0 0 0 0 0 0 0 0 0 0 0 0
0 0 0 0 0 0 0 0 0 0 0 0 0 0 0 0 0 0 0 0 0 0 0 0 0 0 0 0 0 0 0 0 0
0 0 0 0 0 0 0 0 0 0 0 0 0 0 0 0 0 0 0 0 0 0 0 0 0 0 0 0 0 0 0 0 0
0 0 0 0 0 0 0 0 0 0 0 0 0 0 0 0 0 0 0 0 0 0 0 0 0 0 0 0 0 0 0 0 0
0 0 0 0 0 0 0 0 0 0 0 0 0 0 0 0 0 0 0 0 0 0 0 0 0 0 0 0 0 0 0 0 0
0 0 0 0 0 0 0 0 0 0 0 0 0 0 0 0 0 0 0 0 0 0 0 0 0 0 0 0 0 0 0 0 0
0 0 0 0 0 0 0 0 0 0 0 0 0 0 0 0 0 0 0 0 0 0 0 0 0 0 0 0 0 0 0 0 0
0 0 0 0 0 0 0 0 0 0 0 0 0 0 0 0 0 0 0 0 0 0 0 0 0 0 0 0 0 0 0 0 0
0 0 0 0 0 0 0 0 0 0 0 0 0 0 0 0 0 0 0 0 0 0 0 0 0 0 0 0 0 0 0 0 0
0 0 0 0 0 0 0 0 0 0 0 0 0 0 0 0 0 0 0 0 0 0 0 0 0 0 0 0 0 0 0 0 0
0 0 0 0 0 0 0 0 0 0 0 0 0 0 0 0 0 0 0 0 0 0 0 0 0 0 0 0 0 0 0 0 0
0 0 0 0 0 0 0 0 0 0 0 0 0 0 0 0 0 0 0 0 0 0 0 0 0 0 0 0 0 0 0 0 0
0 0 0 0 0 0 0 0 0 0 0 0 0 0 0 0 0 0 0 0 0 0 0 0 0 0 0 0 0 0 0 0 0
Wind_Speed_500mb
26 27 27 27 27 26 25 23 24 23 21 19 18 16 11 11 10 11 11 11 14 8 7 8 12 17 20 21 19 17 15 17 18
27 27 27 27 26 25 24 25 25 23 21 19 17 14 8 8 11 12 11 9 11 12 13 8 8 11 16 17 20 22 22 21 16
26 26 24 23 22 21 21 20 21 21 20 20 17 10 11 12 12 15 16 14 16 16 15 16 16 16 16 13 14 15 17 22 24
23 22 20 19 18 18 17 17 16 16 14 12 11 8 10 11 14 15 15 12 15 18 24 24 23 22 19 16 14 13 14 16 19
20 18 18 17 16 16 16 15 15 14 10 9 7 6 9 11 13 14 13 17 24 20 18 17 18 20 21 20 16 14 14 14 15
15 15 16 15 14 15 14 12 12 10 8 6 4 3 5 9 11 12 16 15 9 7 4 5 11 16 18 15 17 14 15 14 14
14 15 15 15 14 13 11 10 10 9 8 7 4 2 4 6 9 10 5 6 6 8 12 9 5 7 11 12 12 11 8 14 22
12 14 14 14 13 12 11 11 9 9 8 6 4 4 4 6 9 9 6 3 7 8 9 13 13 6 5 9 9 7 11 13 14
10 11 12 12 12 12 12 12 12 12 10 9 5 5 5 6 9 11 13 5 7 11 8 10 14 13 10 13 16 15 15 17 16
9 9 11 12 14 14 15 14 14 14 12 11 8 4 5 5 7 13 10 9 9 10 10 12 13 11 11 13 18 17 18 20 20
7 8 11 13 14 15 17 16 16 16 14 14 13 8 4 2 6 13 10 12 12 15 14 15 17 17 14 10 12 17 19 16 19
5 8 10 11 14 15 17 17 17 15 12 12 12 11 6 3 10 12 12 13 17 17 18 20 21 18 16 15 14 16 22 20 20
4 6 8 10 12 14 14 14 15 15 12 12 10 9 5 8 13 11 12 15 17 21 22 21 20 18 18 18 18 22 23 23 23
2 4 6 8 9 11 12 14 17 18 16 12 9 8 9 5 8 10 13 15 20 24 22 23 22 20 18 18 20 22 24 25 25
2 1 3 6 9 11 13 14 15 17 16 14 7 4 4 4 11 11 13 16 19 24 24 28 26 23 22 21 22 23 25 25 25
4 3 3 6 8 9 11 13 14 15 16 14 12 8 8 7 16 9 12 13 15 21 27 31 29 31 29 27 26 26 25 27 27
7 5 5 7 9 11 12 13 14 17 18 17 15 10 12 8 13 10 11 17 23 26 34 33 30 37 34 31 29 29 29 30 29
9 7 8 10 11 12 13 15 15 16 17 17 13 9 7 28 12 15 15 22 22 33 36 32 35 38 33 34 33 33 33 33 34
10 10 11 13 14 15 16 17 18 19 18 17 17 16 18 13 16 18 21 32 28 35 32 31 37 32 34 34 36 35 37 37 38
12 12 13 15 16 17 18 19 20 21 21 21 21 21 21 22 23 39 44 43 40 40 39 40 39 40 41 36 37 39 42 40 41
Wind_Direction_500mb
75 74 73 72 71 71 70 71 70 71 75 80 85 81 73 64 69 63 51 54 50 39 291 292 272 268 270 275 282 285 292 289 287
79 78 77 76 75 74 73 73 73 74 79 85 95 89 82 67 75 59 48 69 48 30 16 1 327 308 299 293 285 275 270 272 282
82 80 79 79 78 76 76 75 74 75 84 94 99 96 66 56 55 42 34 47 35 28 22 14 5 351 337 326 314 299 282 270 268
83 80 79 76 74 71 68 69 68 69 75 89 96 74 65 41 38 27 27 39 39 29 37 33 27 19 5 350 334 325 313 301 287
80 76 70 64 59 59 56 55 61 67 60 65 84 49 42 34 30 25 38 38 50 45 59 43 35 20 20 22 14 359 331 339 325
73 65 61 58 52 49 48 46 48 51 48 57 62 36 20 27 31 32 68 75 74 28 2 44 43 33 25 25 19 27 23 11 11
71 71 63 61 57 52 50 43 42 38 37 30 8 345 345 360 12 26 74 111 45 2 346 329 324 37 25 34 40 43 22 353 338
67 68 64 59 54 49 39 31 30 25 30 26 351 318 320 331 352 8 8 277 56 31 10 23 40 24 4 348 322 321 17 330 311
69 66 63 57 51 43 31 26 24 13 19 22 16 307 307 331 340 347 346 347 343 336 355 350 27 28 18 315 324 323 295 296 298
71 62 53 45 41 36 31 29 25 14 21 16 31 340 300 329 334 345 36 21 8 356 348 346 347 345 10 335 319 331 315 303 297
74 56 47 40 35 35 32 29 25 18 16 19 34 43 51 70 332 349 9 6 359 349 341 335 329 324 317 358 341 335 332 320 308
77 58 49 40 36 35 33 31 27 19 15 21 40 51 60 355 342 341 354 354 348 345 334 326 325 322 319 316 335 331 325 319 309
71 56 47 39 37 36 34 30 23 16 9 12 27 41 1 316 328 338 340 341 347 345 343 338 333 326 321 316 318 322 321 319 314
85 48 41 39 33 26 20 20 20 18 10 10 9 41 50 39 359 358 349 351 356 355 358 355 343 335 329 325 322 322 323 322 319
165 2 8 15 15 11 13 12 9 9 4 355 352 334 22 48 10 4 6 3 359 358 359 357 354 347 339 330 325 324 325 326 323
216 255 320 344 354 352 353 357 0 357 357 356 335 315 298 304 335 333 6 1 348 351 354 353 351 346 338 333 324 323 327 330 328
232 258 299 323 322 333 340 341 343 344 350 353 339 321 309 294 316 309 320 325 336 341 340 338 338 338 330 329 326 324 321 328 328
244 263 285 296 309 318 320 325 330 336 340 344 351 328 316 322 298 294 287 329 320 330 331 332 330 330 328 327 323 320 319 320 326
251 264 280 294 303 310 316 319 323 327 330 331 330 320 307 315 307 303 295 305 304 317 321 323 323 319 321 317 320 323 323 319 325
255 268 282 293 301 307 311 316 318 319 322 322 319 314 308 305 289 297 302 299 302 307 311 316 319 318 310 305 310 314 315 316 319
Wind_Speed_850mb
26 27 27 27 27 26 25 23 24 23 21 19 18 16 11 11 10 11 11 11 14 8 7 8 12 17 20 21 19 17 15 17 18
27 27 27 27 26 25 24 25 25 23 21 19 17 14 8 8 11 12 11 9 11 12 13 8 8 11 16 17 20 22 22 21 16
26 26 24 23 22 21 21 20 21 21 20 20 17 10 11 12 12 15 16 14 16 16 15 16 16 16 16 13 14 15 17 22 24
23 22 20 19 18 18 17 17 16 16 14 12 11 8 10 11 14 15 15 12 15 18 24 24 23 22 19 16 14 13 14 16 19
20 18 18 17 16 16 16 15 15 14 10 9 7 6 9 11 13 14 13 17 24 20 18 17 18 20 21 20 16 14 14 14 15
15 15 16 15 14 15 14 12 12 10 8 6 4 3 5 9 11 12 16 15 9 7 4 5 11 16 18 15 17 14 15 14 14
14 15 15 15 14 13 11 10 10 9 8 7 4 2 4 6 9 10 5 6 6 8 12 9 5 7 11 12 12 11 8 14 22
12 14 14 14 13 12 11 11 9 9 8 6 4 4 4 6 9 9 6 3 7 8 9 13 13 6 5 9 9 7 11 13 14
10 11 12 12 12 12 12 12 12 12 10 9 5 5 5 6 9 11 13 5 7 11 8 10 14 13 10 13 16 15 15 17 16
9 9 11 12 14 14 15 14 14 14 12 11 8 4 5 5 7 13 10 9 9 10 10 12 13 11 11 13 18 17 18 20 20
7 8 11 13 14 15 17 16 16 16 14 14 13 8 4 2 6 13 10 12 12 15 14 15 17 17 14 10 12 17 19 16 19
5 8 10 11 14 15 17 17 17 15 12 12 12 11 6 3 10 12 12 13 17 17 18 20 21 18 16 15 14 16 22 20 20
4 6 8 10 12 14 14 14 15 15 12 12 10 9 5 8 13 11 12 15 17 21 22 21 20 18 18 18 18 22 23 23 23
2 4 6 8 9 11 12 14 17 18 16 12 9 8 9 5 8 10 13 15 20 24 22 23 22 20 18 18 20 22 24 25 25
2 1 3 6 9 11 13 14 15 17 16 14 7 4 4 4 11 11 13 16 19 24 24 28 26 23 22 21 22 23 25 25 25
4 3 3 6 8 9 11 13 14 15 16 14 12 8 8 7 16 9 12 13 15 21 27 31 29 31 29 27 26 26 25 27 27
7 5 5 7 9 11 12 13 14 17 18 17 15 10 12 8 13 10 11 17 23 26 34 33 30 37 34 31 29 29 29 30 29
9 7 8 10 11 12 13 15 15 16 17 17 13 9 7 28 12 15 15 22 22 33 36 32 35 38 33 34 33 33 33 33 34
10 10 11 13 14 15 16 17 18 19 18 17 17 16 18 13 16 18 21 32 28 35 32 31 37 32 34 34 36 35 37 37 38
12 12 13 15 16 17 18 19 20 21 21 21 21 21 21 22 23 39 44 43 40 40 39 40 39 40 41 36 37 39 42 40 41
Wind_Direction_850mb
75 74 73 72 71 71 70 71 70 71 75 80 85 81 73 64 69 63 51 54 50 39 291 292 272 268 270 275 282 285 292 289 287
79 78 77 76 75 74 73 73 73 74 79 85 95 89 82 67 75 59 48 69 48 30 16 1 327 308 299 293 285 275 270 272 282
82 80 79 79 78 76 76 75 74 75 84 94 99 96 66 56 55 42 34 47 35 28 22 14 5 351 337 326 314 299 282 270 268
83 80 79 76 74 71 68 69 68 69 75 89 96 74 65 41 38 27 27 39 39 29 37 33 27 19 5 350 334 325 313 301 287
80 76 70 64 59 59 56 55 61 67 60 65 84 49 42 34 30 25 38 38 50 45 59 43 35 20 20 22 14 359 331 339 325
73 65 61 58 52 49 48 46 48 51 48 57 62 36 20 27 31 32 68 75 74 28 2 44 43 33 25 25 19 27 23 11 11
71 71 63 61 57 52 50 43 42 38 37 30 8 345 345 360 12 26 74 111 45 2 346 329 324 37 25 34 40 43 22 353 338
67 68 64 59 54 49 39 31 30 25 30 26 351 318 320 331 352 8 8 277 56 31 10 23 40 24 4 348 322 321 17 330 311
69 66 63 57 51 43 31 26 24 13 19 22 16 307 307 331 340 347 346 347 343 336 355 350 27 28 18 315 324 323 295 296 298
71 62 53 45 41 36 31 29 25 14 21 16 31 340 300 329 334 345 36 21 8 356 348 346 347 345 10 335 319 331 315 303 297
74 56 47 40 35 35 32 29 25 18 16 19 34 43 51 70 332 349 9 6 359 349 341 335 329 324 317 358 341 335 332 320 308
77 58 49 40 36 35 33 31 27 19 15 21 40 51 60 355 342 341 354 354 348 345 334 326 325 322 319 316 335 331 325 319 309
71 56 47 39 37 36 34 30 23 16 9 12 27 41 1 316 328 338 340 341 347 345 343 338 333 326 321 316 318 322 321 319 314
85 48 41 39 33 26 20 20 20 18 10 10 9 41 50 39 359 358 349 351 356 355 358 355 343 335 329 325 322 322 323 322 319
165 2 8 15 15 11 13 12 9 9 4 355 352 334 22 48 10 4 6 3 359 358 359 357 354 347 339 330 325 324 325 326 323
216 255 320 344 354 352 353 357 0 357 357 356 335 315 298 304 335 333 6 1 348 351 354 353 351 346 338 333 324 323 327 330 328
232 258 299 323 322 333 340 341 343 344 350 353 339 321 309 294 316 309 320 325 336 341 340 338 338 338 330 329 326 324 321 328 328
244 263 285 296 309 318 320 325 330 336 340 344 351 328 316 322 298 294 287 329 320 330 331 332 330 330 328 327 323 320 319 320 326
251 264 280 294 303 310 316 319 323 327 330 331 330 320 307 315 307 303 295 305 304 317 321 323 323 319 321 317 320 323 323 319 325
255 268 282 293 301 307 311 316 318 319 322 322 319 314 308 305 289 297 302 299 302 307 311 316 319 318 310 305 310 314 315 316 319